When you browse on this site, cookies collect data to enhance your experience and personalize the content and advertising you see.
Visit our Privacy Policy to learn more. By continuing to use the site, you agree to this use of cookies and data.
  • In Österreich
  • Länderverzeichnis
  • Für 7 Tage
  • Wassertemperatur
  • Satellitenkarten
  • Wetterkarte
  • News
  • Widgets
  • user-avatar
    Anmelden

    Stündliche Wetter Kannyn

    Heute, 21 Mai, Dienstag

    Zeit Temperatur Niederschläge Wind Luftdruck Luftfeuchtigkeit
    00:00 +10°C° 0 mm 5 m/S 745 mmHg 63%
    01:00 +10°C° 0 mm 5 m/S 745 mmHg 63%
    02:00 +10°C° 0 mm 6 m/S 745 mmHg 63%
    03:00 +10°C° 0 mm 7 m/S 745 mmHg 62%
    04:00 +10°C° 0 mm 6 m/S 745 mmHg 66%
    05:00 +10°C° 0 mm 6 m/S 745 mmHg 70%
    06:00 +10°C° 0 mm 6 m/S 745 mmHg 74%
    07:00 +13°C° 0 mm 6 m/S 744 mmHg 64%
    08:00 +16°C° 0 mm 6 m/S 744 mmHg 54%
    09:00 +19°C° 0 mm 5 m/S 744 mmHg 44%
    10:00 +20°C° 0 mm 6 m/S 744 mmHg 42%
    11:00 +21°C° 0 mm 6 m/S 744 mmHg 40%
    12:00 +23°C° 0 mm 6 m/S 743 mmHg 38%
    13:00 +23°C° 0 mm 6 m/S 743 mmHg 35%
    14:00 +24°C° 0 mm 6 m/S 743 mmHg 32%
    15:00 +24°C° 0 mm 7 m/S 742 mmHg 28%
    16:00 +23°C° 0 mm 6 m/S 742 mmHg 31%
    17:00 +22°C° 0 mm 6 m/S 742 mmHg 34%
    18:00 +21°C° 0 mm 6 m/S 742 mmHg 36%
    19:00 +19°C° 0 mm 5 m/S 742 mmHg 39%
    20:00 +17°C° 0 mm 5 m/S 743 mmHg 42%
    21:00 +15°C° 0 mm 5 m/S 743 mmHg 45%
    22:00 +15°C° 0 mm 5 m/S 743 mmHg 48%
    23:00 +14°C° 0 mm 5 m/S 744 mmHg 52%

    Morgen, 22 Mai, Mittwoch

    Zeit Temperatur Niederschläge Wind Luftdruck Luftfeuchtigkeit
    00:00 +14°C° 0 mm 5 m/S 744 mmHg 55%
    01:00 +13°C° 0 mm 6 m/S 744 mmHg 57%
    02:00 +13°C° 0 mm 6 m/S 744 mmHg 60%
    03:00 +13°C° 0 mm 6 m/S 744 mmHg 62%
    04:00 +13°C° 0 mm 5 m/S 744 mmHg 62%
    05:00 +13°C° 0 mm 5 m/S 744 mmHg 62%
    06:00 +13°C° 0 mm 5 m/S 744 mmHg 62%
    07:00 +16°C° 0 mm 5 m/S 744 mmHg 53%
    08:00 +19°C° 0 mm 5 m/S 744 mmHg 45%
    09:00 +22°C° 0 mm 6 m/S 744 mmHg 36%
    10:00 +23°C° 0 mm 6 m/S 744 mmHg 35%
    11:00 +24°C° 0 mm 6 m/S 744 mmHg 34%
    12:00 +26°C° 0 mm 6 m/S 743 mmHg 33%
    13:00 +27°C° 0 mm 6 m/S 743 mmHg 30%
    14:00 +28°C° 0 mm 5 m/S 743 mmHg 28%
    15:00 +28°C° 0 mm 5 m/S 742 mmHg 25%
    16:00 +27°C° 0 mm 5 m/S 742 mmHg 29%
    17:00 +26°C° 0 mm 4 m/S 742 mmHg 34%
    18:00 +25°C° 0 mm 3 m/S 742 mmHg 38%
    19:00 +22°C° 0 mm 3 m/S 743 mmHg 44%
    20:00 +19°C° 0 mm 3 m/S 743 mmHg 50%
    21:00 +17°C° 0 mm 3 m/S 744 mmHg 56%
    22:00 +16°C° 0 mm 3 m/S 744 mmHg 56%
    23:00 +15°C° 0 mm 4 m/S 745 mmHg 57%

    übermorgen, 23 Mai, Donnerstag

    Zeit Temperatur Niederschläge Wind Luftdruck Luftfeuchtigkeit
    00:00 +14°C° 0 mm 4 m/S 745 mmHg 57%
    01:00 +14°C° 0 mm 4 m/S 746 mmHg 57%
    02:00 +14°C° 0 mm 4 m/S 746 mmHg 57%
    03:00 +13°C° 0 mm 4 m/S 746 mmHg 57%
    04:00 +14°C° 0 mm 4 m/S 746 mmHg 58%
    05:00 +14°C° 0 mm 4 m/S 747 mmHg 60%
    06:00 +14°C° 0 mm 4 m/S 747 mmHg 61%
    07:00 +18°C° 0 mm 4 m/S 747 mmHg 53%
    08:00 +21°C° 0 mm 3 m/S 747 mmHg 44%
    09:00 +25°C° 0 mm 3 m/S 748 mmHg 35%
    10:00 +26°C° 0 mm 3 m/S 747 mmHg 33%
    11:00 +28°C° 0 mm 3 m/S 747 mmHg 30%
    12:00 +29°C° 0 mm 3 m/S 747 mmHg 27%
    13:00 +29°C° 0 mm 3 m/S 747 mmHg 29%
    14:00 +29°C° 0 mm 3 m/S 746 mmHg 31%
    15:00 +29°C° 0 mm 4 m/S 746 mmHg 33%
    16:00 +28°C° 0 mm 4 m/S 746 mmHg 35%
    17:00 +28°C° 0 mm 4 m/S 746 mmHg 38%
    18:00 +27°C° 0 mm 4 m/S 746 mmHg 40%
    19:00 +26°C° 0 mm 5 m/S 746 mmHg 40%
    20:00 +23°C° 0 mm 5 m/S 746 mmHg 39%
    21:00 +22°C° 0 mm 6 m/S 746 mmHg 39%
    22:00 +22°C° 0 mm 6 m/S 747 mmHg 39%
    23:00 +21°C° 0 mm 5 m/S 747 mmHg 40%

    24 Mai, Freitag

    Zeit Temperatur Niederschläge Wind Luftdruck Luftfeuchtigkeit
    00:00 +21°C° 0 mm 5 m/S 747 mmHg 40%
    01:00 +20°C° 0 mm 5 m/S 747 mmHg 42%
    02:00 +20°C° 0 mm 5 m/S 747 mmHg 43%
    03:00 +20°C° 0 mm 5 m/S 747 mmHg 45%
    04:00 +19°C° 0 mm 4 m/S 747 mmHg 47%
    05:00 +19°C° 0 mm 4 m/S 747 mmHg 50%
    06:00 +19°C° 0 mm 3 m/S 748 mmHg 52%
    07:00 +22°C° 0 mm 3 m/S 748 mmHg 47%
    08:00 +26°C° 0 mm 2 m/S 748 mmHg 43%
    09:00 +29°C° 0 mm 2 m/S 748 mmHg 38%
    10:00 +31°C° 0 mm 2 m/S 748 mmHg 34%
    11:00 +34°C° 0 mm 2 m/S 748 mmHg 31%
    12:00 +36°C° 0 mm 2 m/S 748 mmHg 27%
    13:00 +37°C° 0 mm 2 m/S 747 mmHg 28%
    14:00 +37°C° 0 mm 3 m/S 747 mmHg 28%
    15:00 +37°C° 0 mm 3 m/S 747 mmHg 29%
    16:00 +35°C° 0 mm 3 m/S 747 mmHg 36%
    17:00 +34°C° 0 mm 2 m/S 747 mmHg 44%
    18:00 +31°C° 0 mm 2 m/S 747 mmHg 52%
    19:00 +29°C° 0 mm 3 m/S 747 mmHg 58%
    20:00 +27°C° 0 mm 3 m/S 747 mmHg 63%
    21:00 +25°C° 0 mm 4 m/S 747 mmHg 69%
    22:00 +25°C° 0 mm 4 m/S 748 mmHg 69%
    23:00 +25°C° 0 mm 4 m/S 748 mmHg 68%

    25 Mai, Samstag

    Zeit Temperatur Niederschläge Wind Luftdruck Luftfeuchtigkeit
    00:00 +23°C° 0 mm 4 m/S 748 mmHg 68%
    01:00 +23°C° 0 mm 4 m/S 748 mmHg 67%
    02:00 +22°C° 0 mm 4 m/S 748 mmHg 65%
    03:00 +22°C° 0 mm 4 m/S 748 mmHg 64%
    04:00 +22°C° 0 mm 4 m/S 748 mmHg 61%
    05:00 +22°C° 0 mm 4 m/S 749 mmHg 59%
    06:00 +22°C° 0 mm 5 m/S 749 mmHg 56%
    07:00 +25°C° 0 mm 4 m/S 749 mmHg 51%
    08:00 +28°C° 0 mm 4 m/S 750 mmHg 45%
    09:00 +31°C° 0 mm 3 m/S 750 mmHg 39%
    10:00 +34°C° 0 mm 2 m/S 750 mmHg 34%
    11:00 +36°C° 0 mm 2 m/S 750 mmHg 28%
    12:00 +36°C° 0 mm 1 m/S 750 mmHg 22%
    13:00 +36°C° 0 mm 1 m/S 750 mmHg 24%
    14:00 +37°C° 0 mm 2 m/S 749 mmHg 26%
    15:00 +37°C° 0 mm 2 m/S 749 mmHg 27%
    16:00 +35°C° 0 mm 2 m/S 749 mmHg 35%
    17:00 +34°C° 0 mm 2 m/S 749 mmHg 43%
    18:00 +31°C° 0 mm 2 m/S 750 mmHg 51%
    19:00 +29°C° 0 mm 2 m/S 750 mmHg 54%
    20:00 +27°C° 0 mm 2 m/S 750 mmHg 57%
    21:00 +25°C° 0 mm 2 m/S 751 mmHg 60%
    22:00 +25°C° 0 mm 2 m/S 751 mmHg 59%
    23:00 +24°C° 0 mm 2 m/S 750 mmHg 57%

    26 Mai, Sonntag

    Zeit Temperatur Niederschläge Wind Luftdruck Luftfeuchtigkeit
    00:00 +24°C° 0 mm 3 m/S 750 mmHg 56%
    01:00 +23°C° 0 mm 2 m/S 750 mmHg 53%
    02:00 +23°C° 0 mm 2 m/S 750 mmHg 50%
    03:00 +23°C° 0 mm 2 m/S 749 mmHg 47%
    04:00 +21°C° 0 mm 2 m/S 750 mmHg 47%
    05:00 +21°C° 0 mm 2 m/S 750 mmHg 47%
    06:00 +22°C° 0 mm 1 m/S 750 mmHg 47%
    07:00 +25°C° 0 mm 1 m/S 750 mmHg 42%
    08:00 +28°C° 0 mm 1 m/S 750 mmHg 37%
    09:00 +31°C° 0 mm 1 m/S 751 mmHg 32%
    10:00 +32°C° 0 mm 2 m/S 750 mmHg 30%
    11:00 +34°C° 0 mm 2 m/S 750 mmHg 28%
    12:00 +35°C° 0 mm 3 m/S 750 mmHg 25%
    13:00 +34°C° 0 mm 3 m/S 750 mmHg 29%
    14:00 +33°C° 0 mm 3 m/S 750 mmHg 33%
    15:00 +31°C° 0 mm 3 m/S 749 mmHg 37%
    16:00 +30°C° 0 mm 3 m/S 749 mmHg 38%
    17:00 +28°C° 0 mm 4 m/S 749 mmHg 38%
    18:00 +27°C° 0 mm 4 m/S 749 mmHg 39%
    19:00 +25°C° 0.3 mm 4 m/S 749 mmHg 54%
    20:00 +21°C° 0.3 mm 4 m/S 750 mmHg 68%
    21:00 +18°C° 0.3 mm 4 m/S 750 mmHg 83%
    22:00 +18°C° 1.5 mm 3 m/S 750 mmHg 85%
    23:00 +18°C° 1.5 mm 3 m/S 750 mmHg 88%
    Mehr zeigen